[[{"header":{"parameterUnit":"m.s-1","parameterCategory":1,"la1":30.2991,"la2":30.254,"lo1":-89.0895,"lo2":-89.0444,"dy":0.0017,"dx":0.0017,"nx":28,"ny":28,"refTime":"2025-01-06T09:00:00:Z","depth":0,"parameterNumber":2,"parameterNumberName":"U-component_of_WINDS"},"data":[0,0,0,0,0,0,0,0,0,0,0,0,0,0,0,0,0,0,0,0,0,0,0,0,0,0,0,0,0,0,0,0,0,0,0,0,0,0,0,0,0,0,0,0,0,0,0,0,0,0,0,0,0,0,0,0,0,0,2.062,2.062,0,2.064,2.064,2.0641,2.0623,2.0622,2.0622,2.0621,2.0641,2.0642,2.0643,0,0,0,0,0,0,0,0,0,0,0,0,0,2.0567,2.0568,2.062,2.062,2.0621,2.064,2.064,2.0641,2.0623,2.0622,2.0621,2.0621,2.064,2.0642,2.0643,0,0,0,0,0,0,0,0,0,0,0,0,0,2.0589,2.0569,2.062,2.0614,2.0614,2.064,2.064,2.0641,2.0623,2.0622,2.0621,2.062,2.064,2.0641,2.0643,2.0676,0,0,2.0649,2.065,0,0,0,0,0,0,0,0,2.0588,2.0591,2.0615,2.0615,2.0614,2.0628,2.0629,2.0653,2.0624,2.062,2.0621,2.062,2.0637,2.0639,2.0645,2.0677,2.0678,2.0649,2.065,2.0651,2.0651,0,0,0,0,0,0,0,2.0586,2.059,2.0628,2.0615,2.0615,2.0611,2.0613,2.0633,2.0634,2.062,2.0619,2.0621,2.0637,2.0644,2.0646,2.0678,2.0649,2.065,2.0652,2.0652,2.0739,2.074,0,0,0,0,0,0,2.0585,2.0589,2.0627,2.0629,2.0598,2.0613,2.0615,2.0625,2.0634,2.0634,2.0622,2.0621,2.0641,2.0644,2.0646,2.0686,2.0651,2.0652,2.0653,2.0738,2.0739,2.0741,0,0,0,0,0,0,2.0584,2.0589,2.0627,2.0609,2.0613,2.0615,2.0626,2.0626,2.0632,2.0636,2.0636,2.0629,2.064,2.0644,2.0669,2.0686,2.0653,2.0655,2.0736,2.0738,2.074,2.0764,0,0,0,0,0,0,2.0583,2.0589,2.0601,2.0609,2.0614,2.0649,2.0627,2.0627,2.0636,2.0633,2.0642,2.0642,2.064,2.0666,2.0671,2.0688,2.0656,2.0735,2.0737,2.0739,2.0762,2.0767,2.0771,0,0,0,0,0,2.0581,2.0607,2.0602,2.0606,2.0629,2.065,2.0653,2.0649,2.0637,2.0649,2.0652,2.0642,2.0684,2.0669,2.0674,2.0692,2.0734,2.0737,2.0739,2.076,2.0766,2.0771,0,0,0,0,0,0,2.06,2.0607,2.0602,2.0631,2.064,2.0647,2.0662,2.0656,2.0668,2.0665,2.0661,2.0663,2.069,2.0694,2.0677,2.0725,2.0707,2.0711,2.0721,2.0727,2.0731,2.0729,2.0658,0,0,0,0,0,2.0607,2.0624,2.0629,2.0654,2.0659,2.066,2.0669,2.0666,2.0675,2.0679,2.0683,2.0692,2.0707,2.0717,2.0732,2.0763,2.0765,2.0778,2.0782,2.0786,2.0789,2.0807,2.0813,2.075,2.075,2.075,0,0,2.0623,2.0629,2.0639,2.0658,2.0665,2.0682,2.0663,2.0682,2.0695,2.0681,2.0706,2.071,2.072,2.0748,2.0761,2.0752,2.0807,2.079,2.0792,2.0794,2.081,2.0816,2.0822,2.0752,2.0751,2.0751,0,0,2.066,2.0666,2.0688,2.0696,2.0706,2.0707,2.0713,2.0721,2.0723,2.0748,2.0738,2.0754,2.078,2.0788,2.0795,2.0838,2.0829,2.0843,2.0865,2.0883,2.0888,2.0892,2.0907,2.0913,2.0846,2.0846,2.0846,0,2.0677,2.0703,2.07,2.072,2.0728,2.0718,2.0741,2.0748,2.0763,2.0769,2.0759,2.0793,2.0799,2.083,2.0841,2.0847,2.0853,2.0841,2.0887,2.0892,2.0896,2.091,2.0916,2.0847,2.0847,2.0847,2.0847,0,2.0724,2.0742,2.0759,2.0774,2.0785,2.0806,2.0806,2.0818,2.0814,2.0816,2.0842,2.085,2.0865,2.0873,2.0869,2.0904,2.0898,2.0888,2.0869,2.0903,2.0917,2.0922,2.085,2.0849,2.0849,2.0848,0,0,2.0771,2.0786,2.0792,2.08,2.0812,2.0826,2.0847,2.0863,2.0873,2.0884,2.0902,2.0926,2.0917,2.0925,2.0923,2.0938,2.0972,2.0926,2.0926,2.0934,2.1011,2.1018,2.1024,2.0967,2.0968,2.0969,2.101,0,2.0809,2.0845,2.0844,2.0878,2.0895,2.0887,2.0905,2.0915,2.0918,2.0933,2.0937,2.0953,2.094,2.0946,2.0961,2.0965,2.0987,2.0962,2.0983,2.0984,2.098,2.1031,2.1038,2.1076,2.1015,2.1016,2.1017,0,2.0856,2.087,2.0906,2.0917,2.0924,2.094,2.0956,2.0971,2.0982,2.0983,2.0994,2.099,2.1011,2.0994,2.1024,2.1007,2.1016,2.102,2.1021,2.1022,2.1002,2.1033,2.1089,2.1094,2.1025,2.1024,2.1024,0,2.0887,2.0914,2.094,2.0946,2.096,2.0972,2.0978,2.0988,2.0999,2.1012,2.1019,2.1035,2.1044,2.1057,2.1057,2.1044,2.1088,2.107,2.109,2.109,2.1098,2.1097,2.1155,2.1106,2.1105,2.1105,2.1105,0,2.0928,2.095,2.0954,2.0969,2.0994,2.0994,2.1019,2.1024,2.1033,2.105,2.1044,2.106,2.106,2.1076,2.1077,2.1102,2.1106,2.1108,2.1108,2.1108,2.1108,2.1113,2.111,2.1107,2.1107,2.1106,2.1106,0,2.0966,2.0969,2.0996,2.1007,2.1011,2.1029,2.1038,2.1053,2.1057,2.1078,2.1083,2.1088,2.1107,2.111,2.1132,2.1132,2.1163,2.116,2.1159,2.1158,2.1177,2.1175,2.124,2.1248,2.1194,2.1194,2.1195,0,2.0991,2.1008,2.1022,2.1033,2.104,2.1058,2.1068,2.1069,2.1081,2.1096,2.111,2.1128,2.1143,2.1174,2.118,2.1197,2.1194,2.1216,2.1197,2.1197,2.1194,2.1193,2.1195,2.1219,2.122,2.122,2.1221,0,2.1036,2.1037,2.1053,2.107,2.1084,2.1097,2.111,2.1119,2.1122,2.1135,2.1155,2.1166,2.119,2.1208,2.1226,2.1232,2.1227,2.1227,2.1232,2.1232,2.1231,2.1232,2.1168,2.1225,2.1224,2.1224,2.1224,2.1224,2.1068,2.1083,2.1096,2.1114,2.1124,2.1136,2.1151,2.1157,2.1174,2.1193,2.1193,2.1215,2.1227,2.125,2.1258,2.1275,2.1268,2.1276,2.1278,2.128,2.1281,2.1229,2.1279,2.1279,2.1278,2.1278,2.1278,0,2.1112,2.1121,2.1138,2.1156,2.1171,2.1166,2.118,2.1192,2.1212,2.1224,2.1239,2.1263,2.1281,2.129,2.1308,2.132,2.1319,2.1325,2.1324,2.1326,2.1287,2.128,2.1326,2.1326,2.1326,2.1326,2.1326,2.1326,2.1137,2.1163,2.1166,2.1197,2.1205,2.1226,2.1235,2.1247,2.1257,2.1283,2.1299,2.1304,2.1315,2.1335,2.1352,2.1354,2.1361,2.1369,2.137,2.1333,2.1328,2.1323,2.1317,2.137,2.137,2.1407,2.1407,2.1407]},{"header":{"parameterUnit":"m.s-1","parameterCategory":1,"la1":30.2991,"la2":30.254,"lo1":-89.0895,"lo2":-89.0444,"dy":0.0017,"dx":0.0017,"nx":28,"ny":28,"refTime":"2025-01-06T09:00:00:Z","depth":0,"parameterNumber":3,"parameterNumberName":"V-component_of_WINDS"},"data":[0,0,0,0,0,0,0,0,0,0,0,0,0,0,0,0,0,0,0,0,0,0,0,0,0,0,0,0,0,0,0,0,0,0,0,0,0,0,0,0,0,0,0,0,0,0,0,0,0,0,0,0,0,0,0,0,0,0,-8.5647,-8.565,0,-8.5878,-8.588,-8.5883,-8.5805,-8.58,-8.5795,-8.5791,-8.6021,-8.6032,-8.6042,0,0,0,0,0,0,0,0,0,0,0,0,0,-8.5135,-8.5145,-8.5647,-8.565,-8.5653,-8.5877,-8.588,-8.5883,-8.5806,-8.58,-8.5794,-8.5788,-8.6018,-8.603,-8.6043,0,0,0,0,0,0,0,0,0,0,0,0,0,-8.5361,-8.5148,-8.5646,-8.5641,-8.5643,-8.5877,-8.588,-8.5884,-8.5807,-8.58,-8.5792,-8.5785,-8.6013,-8.6029,-8.6045,-8.6296,0,0,-8.6095,-8.6102,0,0,0,0,0,0,0,0,-8.5348,-8.5379,-8.5639,-8.5642,-8.5645,-8.5805,-8.5784,-8.6022,-8.5809,-8.5745,-8.579,-8.5782,-8.5955,-8.5976,-8.6035,-8.6307,-8.6316,-8.6096,-8.6106,-8.6113,-8.6118,0,0,0,0,0,0,0,-8.5332,-8.5369,-8.5738,-8.5643,-8.5646,-8.5626,-8.565,-8.5829,-8.5889,-8.575,-8.5745,-8.5774,-8.5955,-8.602,-8.604,-8.632,-8.6096,-8.611,-8.612,-8.6127,-8.6808,-8.6816,0,0,0,0,0,0,-8.5316,-8.5357,-8.5731,-8.5745,-8.5475,-8.5641,-8.5668,-8.5761,-8.5887,-8.5899,-8.578,-8.5769,-8.5996,-8.6021,-8.6048,-8.635,-8.6113,-8.6128,-8.6137,-8.68,-8.681,-8.6819,0,0,0,0,0,0,-8.5305,-8.535,-8.5721,-8.555,-8.5595,-8.5658,-8.5763,-8.577,-8.5834,-8.591,-8.5919,-8.5835,-8.5991,-8.6025,-8.6235,-8.6357,-8.6135,-8.615,-8.679,-8.6803,-8.6815,-8.6956,0,0,0,0,0,0,-8.5291,-8.5347,-8.5444,-8.5552,-8.5605,-8.5907,-8.5771,-8.578,-8.5863,-8.5851,-8.5964,-8.5976,-8.5988,-8.6211,-8.6251,-8.6375,-8.6163,-8.678,-8.6796,-8.6811,-8.6941,-8.6972,-8.6999,0,0,0,0,0,-8.5273,-8.5473,-8.5449,-8.5495,-8.5728,-8.5914,-8.5944,-8.5955,-8.5873,-8.5971,-8.6019,-8.5972,-8.6337,-8.6234,-8.6278,-8.6409,-8.6772,-8.6791,-8.681,-8.6928,-8.6966,-8.6998,0,0,0,0,0,0,-8.5375,-8.5487,-8.5462,-8.5703,-8.58,-8.5901,-8.6024,-8.5995,-8.6115,-8.6099,-8.6106,-8.6132,-8.6348,-8.6399,-8.6282,-8.6658,-8.6542,-8.6571,-8.6617,-8.6654,-8.6682,-8.6665,-8.6176,0,0,0,0,0,-8.5426,-8.557,-8.5659,-8.5864,-8.5914,-8.5961,-8.6042,-8.6043,-8.6142,-8.6182,-8.6246,-8.6343,-8.6479,-8.6569,-8.6699,-8.6948,-8.6971,-8.7059,-8.7088,-8.7111,-8.7136,-8.7272,-8.7312,-8.6881,-8.6881,-8.6881,0,0,-8.5532,-8.5611,-8.5701,-8.5886,-8.5961,-8.6109,-8.5996,-8.6156,-8.6265,-8.6206,-8.6409,-8.6459,-8.6568,-8.6799,-8.6904,-8.6848,-8.726,-8.7136,-8.7154,-8.7166,-8.7296,-8.7336,-8.7373,-8.6894,-8.6892,-8.689,0,0,-8.5802,-8.5876,-8.6055,-8.6133,-8.6248,-8.6279,-8.6321,-8.6427,-8.6459,-8.6663,-8.6622,-8.6751,-8.6986,-8.7065,-8.7136,-8.7436,-8.7398,-8.7478,-8.7629,-8.7761,-8.7795,-8.7825,-8.7933,-8.7971,-8.7502,-8.7503,-8.7503,0,-8.5919,-8.6141,-8.615,-8.6315,-8.6398,-8.6353,-8.6533,-8.6608,-8.6759,-8.6816,-8.6752,-8.7047,-8.7116,-8.7366,-8.7439,-8.7498,-8.7546,-8.7466,-8.779,-8.782,-8.7848,-8.7951,-8.7991,-8.7512,-8.7511,-8.751,-8.7509,0,-8.6279,-8.6434,-8.6564,-8.6714,-8.6811,-8.6983,-8.7017,-8.7114,-8.7106,-8.7142,-8.735,-8.7433,-8.7579,-8.7637,-8.763,-8.7886,-8.7848,-8.7787,-8.7671,-8.7899,-8.7995,-8.8034,-8.7525,-8.7522,-8.7519,-8.7517,0,0,-8.662,-8.6773,-8.6821,-8.6889,-8.7013,-8.7132,-8.7301,-8.7446,-8.7529,-8.7634,-8.7776,-8.7976,-8.7921,-8.8002,-8.8003,-8.8119,-8.8352,-8.8044,-8.8046,-8.8099,-8.8639,-8.8685,-8.8731,-8.8327,-8.8334,-8.834,-8.863,0,-8.69,-8.72,-8.7213,-8.7486,-8.7629,-8.7588,-8.7735,-8.7827,-8.7865,-8.7991,-8.8032,-8.8175,-8.809,-8.8139,-8.8252,-8.83,-8.8461,-8.8279,-8.8458,-8.8464,-8.8433,-8.8781,-8.883,-8.91,-8.8668,-8.8675,-8.8679,0,-8.7267,-8.7387,-8.7674,-8.7779,-8.7839,-8.7972,-8.8106,-8.8226,-8.8329,-8.8348,-8.844,-8.8424,-8.8596,-8.8474,-8.871,-8.8587,-8.866,-8.8695,-8.8705,-8.8723,-8.8586,-8.8809,-8.9186,-8.9227,-8.8738,-8.8734,-8.8729,0,-8.7488,-8.772,-8.7922,-8.7981,-8.8108,-8.8202,-8.8259,-8.8354,-8.8441,-8.8557,-8.8613,-8.8747,-8.882,-8.8924,-8.8944,-8.8853,-8.9181,-8.9061,-8.9202,-8.9202,-8.9273,-8.9269,-8.9669,-8.932,-8.9319,-8.9318,-8.9318,0,-8.78,-8.7977,-8.8023,-8.8148,-8.8345,-8.8358,-8.8553,-8.8602,-8.8688,-8.882,-8.8792,-8.8916,-8.8936,-8.9064,-8.9081,-8.9275,-8.9307,-8.9328,-8.933,-8.9331,-8.9329,-8.938,-8.9362,-8.9329,-8.9327,-8.9325,-8.9323,0,-8.808,-8.8118,-8.8336,-8.8439,-8.8469,-8.861,-8.8697,-8.8815,-8.8851,-8.9019,-8.9059,-8.9114,-8.9264,-8.9295,-8.9471,-8.9483,-8.9713,-8.9696,-8.968,-8.9678,-8.9818,-8.9805,-9.0265,-9.0327,-8.9937,-8.9941,-8.9944,0,-8.8277,-8.8413,-8.8531,-8.8619,-8.8681,-8.8822,-8.891,-8.8928,-8.9021,-8.9148,-8.9251,-8.9399,-8.9518,-8.9759,-8.9814,-8.9949,-8.9935,-9.0088,-8.9955,-8.9952,-8.9939,-8.9931,-8.9944,-9.0113,-9.0117,-9.0121,-9.0123,0,-8.8623,-8.8635,-8.8765,-8.8902,-8.9009,-8.9117,-8.9219,-8.9292,-8.9323,-8.9429,-8.9583,-8.9676,-8.9857,-9.0004,-9.0139,-9.0195,-9.0166,-9.0165,-9.0205,-9.0207,-9.0192,-9.0203,-8.975,-9.0154,-9.0151,-9.0149,-9.0147,-9.0146,-8.8868,-8.8987,-8.9089,-8.9235,-8.9314,-8.9411,-8.9528,-8.9579,-8.9708,-8.9859,-8.9861,-9.003,-9.0128,-9.0307,-9.0372,-9.0503,-9.0455,-9.0512,-9.0527,-9.0541,-9.0555,-9.0171,-9.0527,-9.0526,-9.0525,-9.0525,-9.0524,0,-8.9213,-8.9277,-8.9411,-8.9556,-8.9671,-8.9634,-8.9745,-8.9843,-8.9993,-9.0088,-9.0206,-9.0383,-9.0525,-9.0591,-9.0731,-9.0823,-9.0813,-9.086,-9.0853,-9.0867,-9.0589,-9.0541,-9.0866,-9.0866,-9.0866,-9.0866,-9.0865,-9.0865,-8.9406,-8.9607,-8.9631,-8.987,-8.9932,-9.0099,-9.0166,-9.0255,-9.0331,-9.0531,-9.065,-9.0692,-9.0776,-9.0922,-9.105,-9.1066,-9.1119,-9.1172,-9.1181,-9.0921,-9.0886,-9.0853,-9.0808,-9.1184,-9.1184,-9.1448,-9.1451,-9.1452]}]]